Flag for U.S.A. Weather past 2 weeks in Augusta, Maine, U.S.A.

Now
46 °F

Overcast.


Feels Like: 42 °F
Forecast: 33 / 51 °F
Wind: 8 mph from Northeast

Location: Augusta State Airport

Current Time: Apr 25, 2015 at 2:23:57 PM

Latest Report: Apr 25, 2015 at 1:53 PM


Visibility: 10 mi

Pressure: 29.67 "Hg

Humidity: 46%

Dew point: 26 °F

Location of AugustaLocation

Historic Weather in Augusta — Graph

°F

Augusta temperature yesterday

Maximum temperature yesterday: 46 °F (at 11:53 AM)
Minimum temperature yesterday: 34 °F (at 9:53 PM)
Average temperature yesterday: 39 °F

Past Weeks' High & Low Weather Summary

 TemperatureHumidityPressure
High68 °F (Apr 13, 2:53 PM)100% (Apr 10, 12:53 PM)30.47 "Hg (Apr 10, 12:53 PM)
Low33 °F (Apr 16, 5:53 AM)13% (Apr 15, 2:53 PM)29.39 "Hg (Apr 23, 3:53 AM)
Average46 °F59%29.93 "Hg
* Reported Apr 10 12:53 PM — Apr 25 12:53 PM, Augusta, Weather by CustomWeather, © 2015

Note: Actual official high and low records may vary slightly from our data, if they occured in-between our weather recording intervals... More about our weather records

Advertising

Augusta weather history for previous 24 hours

 ConditionsComfort  
Time TempWeatherWind HumidityBarometerVisibility
12:53 PM
Sat, Apr 25
45 °FOvercast.9 mph45%29.67 "Hg10 mi
11:53 AM44 °FOvercast.10 mph49%29.67 "Hg10 mi
10:53 AM41 °FCloudy.9 mph58%29.69 "Hg10 mi
9:53 AM40 °FMostly cloudy.12 mph58%29.69 "Hg10 mi
8:53 AM39 °FMore clouds than sun.14 mph55%29.69 "Hg10 mi
7:53 AM36 °FPartly sunny.8 mph59%29.69 "Hg10 mi
6:53 AM35 °FBroken clouds.7 mph61%29.70 "Hg10 mi
5:53 AM34 °FOvercast.7 mph61%29.68 "Hg10 mi
4:53 AM34 °FPassing clouds.8 mph61%29.67 "Hg10 mi
3:53 AM33 °FOvercast.6 mph66%29.67 "Hg10 mi
2:53 AM33 °FPassing clouds.8 mph66%29.67 "Hg10 mi
1:53 AM34 °FPassing clouds.8 mph64%29.68 "Hg10 mi
12:53 AM34 °FPartly cloudy.8 mph64%29.69 "Hg10 mi
11:53 PM
Fri, Apr 24
34 °FPassing clouds.7 mph61%29.70 "Hg10 mi
10:53 PM34 °FPassing clouds.8 mph61%29.70 "Hg10 mi
9:53 PM34 °FClear.8 mph60%29.70 "Hg10 mi
8:53 PM35 °FOvercast.9 mph59%29.72 "Hg10 mi
7:53 PM36 °FOvercast.10 mph56%29.70 "Hg10 mi
6:53 PM37 °FPartly sunny.17 mph54%29.70 "Hg10 mi
5:53 PM40 °FPartly sunny.13 mph49%29.68 "Hg10 mi
4:53 PM41 °FOvercast.17 mph47%29.67 "Hg10 mi
3:53 PM42 °FOvercast.13 mph47%29.65 "Hg10 mi
2:53 PM44 °FOvercast.16 mph45%29.63 "Hg10 mi
Weather by CustomWeather, © 2015

See weather overviewHow to use our weather pages